Regional Weather Roundup
Issued by NWS

Home | Current Version | Previous Version | Graphics & Text | Print | Product List | Glossary On
Versions: 1 2 3 4 5 6 7 8 9 10 11 12 13 14 15 16 17 18 19 20 21 22 23 24 25 26 27 28 29 30 31 32 33 34 35 36 37 38 39 40 41 42 43 44 45 46 47 48 49 50
011
ASUS45 KBOU 190610
RWRCO

WEATHER ROUNDUP FOR COLORADO
NATIONAL WEATHER SERVICE PUEBLO CO
1100 PM MST SUN FEB 18 2018

NOTE: "FAIR" INDICATES FEW OR NO CLOUDS BELOW 12000 FEET WITH NO
SIGNIFICANT WEATHER AND/OR OBSTRUCTIONS TO VISIBILITY.

COZ001>005-013-030-031-190700-
...NORTHWEST COLORADO...

CITY           SKY/WX    TMP DP  RH WIND       PRES   REMARKS
CRAIG          PTCLDY    32  23  69 SE7       29.42R WCI  26
HAYDEN         PTCLDY    36  21  54 W10       29.43S
MEEKER         CLEAR     41  21  44 S12       29.42F
RABBIT EARS PA NOT AVBL
STEAMBOAT SPGS FAIR      39  19  44 SE5       29.42F
WALDEN         FAIR      34  19  55 S15G25    29.45F WCI  24
$$

COZ006>008-011-190700-
...WEST CENTRAL VALLEYS...

CITY           SKY/WX    TMP DP  RH WIND       PRES   REMARKS
GRAND JUNCTION PTCLDY    51  22  31 S12       29.43F
MONTROSE       MOCLDY    48  21  34 S16G29    29.54R
EAGLE          MOCLDY    45  18  34 SW18G26   29.48F
RIFLE          PTCLDY    50  20  30 SW21G38   29.43F
DELTA          NOT AVBL
NUCLA          FAIR      46  23  39 SW29G37   29.59R
$$

COZ017>023-064>068-190700-
...SOUTHWEST COLORADO...

CITY           SKY/WX    TMP DP  RH WIND       PRES   REMARKS
DURANGO        MOCLDY    39  28  64 SW12      29.70F
CORTEZ         PTCLDY    44  27  51 S25G31    29.65S
PAGOSA SPRINGS MOCLDY    40  26  57 SW14G21   29.73S
TELLURIDE      LGT SNOW  33  25  71 S5        29.67R WCI  28
WOLF CREEK PAS HVY SNOW  21  21 100 S30G44    29.75F VSB 1/4 WCI   3
$$

COZ009-010-012-014-032>034-037-058>063-190700-
...CENTRAL COLORADO...

CITY           SKY/WX    TMP DP  RH WIND       PRES   REMARKS
ASPEN          CLOUDY    41  17  38 S17G25    29.52F
BUENA VISTA    FAIR      35  10  34 SE8G16    29.57F WCI  29
COPPER MTN     CLOUDY    27   9  46 S21G26    29.60F WCI  13
BERTHOUD PASS  FAIR      18   7  62 SW22G29   29.59F WCI   0
COTTONWOOD PAS PTCLDY    37  14  38 W15G25    29.60F
GUNNISON       CLEAR     28  17  63 N9        29.58F WCI  19
KREMMLING      MOCLDY    45  16  31 SW24G38   29.49S
LEADVILLE      PTCLDY    30   8  39 MISG      29.55F
MONARCH PASS   CLEAR     21  10  63 SW35G43   29.73F WCI   2
SALIDA         FAIR      40  13  33 CALM      29.65F
SUNLIGHT       MOCLDY    23  16  74 SW20G38   29.57S WCI   8
WILKERSON PASS PTCLDY    23   9  54 SW17G28   29.61F WCI   9
$$

COZ069>075-190700-
...SAN LUIS VALLEY/SANGRE DE CRISTO MOUNTAINS...

CITY           SKY/WX    TMP DP  RH WIND       PRES   REMARKS
ALAMOSA        PTCLDY    38  27  64 SW22G32   29.67S
DEL NORTE      FLURRIES  35  26  70 W21G30    29.64F WCI  23
LA VETA PASS   MOCLDY    30  21  69 S38G72    29.69S WCI  14
SAGUACHE       CLEAR     30  14  51 CALM      29.62F
$$

COZ035-036-038>040-190700-
...NORTHERN COLORADO FRONT RANGE...

CITY           SKY/WX    TMP DP  RH WIND       PRES   REMARKS
DENVER INTL AP FRZ DRZL  23  21  92 NE15      29.64R VSB 3/4 WCI  10
DMNS CITY PARK NOT AVBL
AURORA         LGT SNOW  23  23  99 NE9       29.63R VSB 1   WCI  13
FRONT RANGE AP MIX PCPN  25  24  94 NE10      29.64R WCI  15
ERIE MUNI ARPT CLOUDY    25  23  93 E10       29.70R WCI  15
BOULDER MUN AP CLOUDY    27  27 100 NE7       29.63R WCI  19
CENTENNIAL     SNOW      24  24 100 NE8       29.61S VSB 1/4 WCI  15
BROOMFIELD     CLOUDY    27  23  86 NE10      29.62R FOG     WCI  17
LOVELAND       FLURRIES  23  17  78 NE12      29.66R WCI  12
LONGMONT       CLOUDY    28  23  84 E9        29.67R FOG     WCI  19
$$

COZ041-046-047-076>085-087-088-190700-
...PIKES PEAK/PALMER DIVIDE AND SOUTHERN FOOTHILLS...

CITY           SKY/WX    TMP DP  RH WIND       PRES   REMARKS
COLO. SPRINGS  PTCLDY    47  13  25 S22       29.51S
A. F. ACADEMY  PTCLDY    30  22  72 N18       29.52R WCI  18
SCHRIEVER AFB  NOT AVBL
CHEYENNE MTN   NOT AVBL
ELLICOTT         N/A    N/A N/A N/A SW3       29.52R
FALCON         FAIR      31  19  62 MISG      29.56R
FORT CARSON    CLEAR     44  13  28 SE14      29.49F
LIMON          FOG       23  23 100 NE18G26   29.61R VSB 3/4 WCI   9
MONUMENT HILL  FOG       23  23 100 N8        29.59R VSB 1/4 WCI  14
CANON CITY     CLEAR     52  18  25 NW8G21    29.49R
WALSENBURG     FAIR      52  23  32 SW24G36   29.55F
TRINIDAD       CLEAR     51  20  29 W14G23    29.57F
$$

COZ042>045-048>051-090-091-190700-
...NORTHEAST COLORADO...

CITY           SKY/WX    TMP DP  RH WIND       PRES   REMARKS
GREELEY ARPT   CLOUDY    19  13  77 N15G22    29.71R WCI   5
AKRON          CLOUDY    15  14  95 N21       29.67R WCI  -2
BURLINGTON     FOG       24  23  96 N21G30    29.61R VSB 1   WCI   9
WRAY           CLOUDY    23  19  86 MISG      29.68R
YUMA           NOT AVBL
STERLING       CLOUDY    18  12  79 N15       29.72R WCI   3
HOLYOKE        CLOUDY    21  18  86 N23G30    29.70R WCI   5
FORT MORGAN    CLOUDY    17  12  82 N15       29.71R WCI   2
$$

COZ086-089-092>099-190700-
...SOUTHEAST COLORADO...

CITY           SKY/WX    TMP DP  RH WIND       PRES   REMARKS
PUEBLO         PTCLDY    42  15  33 E6        29.47S
LA JUNTA       CLEAR     56  16  20 SW20      29.47F
LAMAR          CLEAR     42  13  30 SW13      29.45S
SPRINGFIELD      N/A     50  26  39 SW13G21   29.55R
$$





USA.gov is the U.S. government's official web portal to all federal, state and local government web resources and services.